Starlink 2636

operational
NORAD ID: 48357 Int'l Des: 2021-038 Owner: SPXS Country: US Constellation: starlink
LEOCIRCULARSTARLINK_TYPE

Über Starlink 2636

Beschreibung wird geladen...

Live-Position

3D-Globus wird geladen...

Nächste Überflüge

Höhenverlauf

Altitude vs Time

uPlot chart will show altitude changes over time

Zweizeiliger Elementsatz

1 48357U 21038E 25296.88708701 .00001895 00000-0 14614-3 0 9996
2 48357 53.0535 256.1737 0001681 88.3814 271.7367 15.06390380246403
Epoch: 23. Okt. 2025 • Age: 17 hours

Aktueller Status

Höhe 566.3 km
Geschwindigkeit 7.58 km/s
Subsatellitenpunkt -51.77°S, 68.87°W
Startdatum 4. Mai 2021
Alter 4.4 years
Typ internet

Technische Details

Klassifizierung Payload
Masse 260.00 kg
Trockenmasse 248.00 kg
Gesamtmasse 260.00 kg
Länge 0.20 m
Durchmesser 2.80 m
Spannweite 9.00 m
Form Box + pan
Hersteller SPXS
Bus-Typ Starlink
Phasenstatus In Orbit
Besitzer/Staat SPXS/US

Große Konstellationen

Loading constellations...